If you wish to contribute or participate in the discussions about articles you are invited to join SKYbrary as a registered user

 Actions

Arad International Airport

From SKYbrary Wiki

LRAR
Airport
ICAO: LRAR – IATA: ARW
Summary
Name Arad International Airport
Region
Territory Romania RO.gif
Location , Arad
Serving Arad
Elevation 107.29 m
352 ft
352 ft107.29 m
Type medium airport
Coordinates 46° 10' 35.58" N, 21° 15' 43.28" E
Runways
Designator Length Width Surface ROPS
9/27 2000 m6,561.68 ft
45 m147.638 ft
CON /


METAR
Observation LRAR 142200Z 35006KT 5000 BR SCT003 OVC007 11/11 Q1012 R09/29//95
Station Arad
Date/Time 14 May 2019 22:00:00
Wind direction 350°
Wind speed 06 kts
Lowest cloud amount scattered clouds
Temperature 11°C
Dew point 11°C
Humidity 100%
QNH 1012 hPa
Weather condition n/a